Weather History for Hayward, WI

Change the Weather History Date:

Saturday, September 28, 2013

  Actual Average Record
Temperature  
Mean Temperature 60 °F -  
Max Temperature 72 °F 71 °F 80 °F (2014)
Min Temperature 46 °F 43 °F 26 °F (2001)
Degree Days  
Heating Degree Days 4    
Growing Degree Days 10 (Base 50)    
Moisture  
Dew Point 53 °F    
Average Humidity 85    
Maximum Humidity 100    
Minimum Humidity 50    
Precipitation  
Precipitation 0.45 in - - ()
Sea Level Pressure  
Sea Level Pressure 29.77 in    
Wind  
Wind Speed 10 mph (SSW)    
Max Wind Speed 17 mph    
Max Gust Speed 36 mph    
Visibility 7 miles    
Events Rain    
Averages and records for this station are not official NWS values.
T = Trace of Precipitation, MM = Missing Value Source: NWS Daily Summary

Daily Weather History Graph

Daily Weather History Graph

Search for Another Location

Airport:

Trip Planner

Search our weather history database for the weather conditions in past years. The results will help you decide how hot, cold, wet, or windy it might be!

Date:

Astronomy

Sep. 28, 2013 Rise Set
Actual Time 7:00 AM CDT 6:51 PM CDT
Civil Twilight 6:30 AM CDT 7:20 PM CDT
Nautical Twilight 5:56 AM CDT 7:55 PM CDT
Astronomical Twilight 5:20 AM CDT 8:30 PM CDT
Moon 12:31 AM CDT (9/28) 3:25 PM CDT (9/28)
Length of Visible Light 12h 49m
Length of Day
11h 50m
Waning Crescent, 36% of the Moon is Illuminated
Sep 28
Waning Crescent
Oct 4
New
Oct 11
First Quarter
Oct 18
Full
Oct 26
Last Quarter

Hourly Weather History & Observations

Time (CDT) Temp. Dew Point Humidity Pressure Visibility Wind Dir Wind Speed Gust Speed Precip Events Conditions
12:53 AM 68.0 °F 48.9 °F 50% 29.89 in 10.0 mi South 10.4 mph - N/A   Clear
1:53 AM 66.0 °F 48.9 °F 54% 29.89 in 10.0 mi SSE 12.7 mph - N/A   Clear
2:53 AM 64.0 °F 48.9 °F 58% 29.87 in 10.0 mi SSE 11.5 mph - N/A   Clear
3:53 AM 63.0 °F 50.0 °F 63% 29.86 in 10.0 mi SSE 10.4 mph - N/A   Mostly Cloudy
4:53 AM 62.1 °F 50.0 °F 65% 29.84 in 10.0 mi SSE 10.4 mph 20.7 mph N/A   Clear
5:53 AM 60.1 °F 51.1 °F 72% 29.83 in 10.0 mi SSE 13.8 mph - N/A   Partly Cloudy
6:53 AM 60.1 °F 50.0 °F 69% 29.82 in 10.0 mi SSE 16.1 mph 21.9 mph N/A   Clear
7:53 AM 61.0 °F 51.1 °F 70% 29.80 in 10.0 mi SSE 13.8 mph 24.2 mph N/A   Partly Cloudy
8:53 AM 63.0 °F 53.1 °F 70% 29.77 in 10.0 mi SSE 15.0 mph 21.9 mph N/A   Clear
9:53 AM 64.9 °F 55.0 °F 70% 29.73 in 10.0 mi SSE 16.1 mph 29.9 mph N/A   Clear
10:53 AM 69.1 °F 57.0 °F 65% 29.69 in 10.0 mi SSE 17.3 mph 27.6 mph N/A   Overcast
11:53 AM 71.1 °F 57.9 °F 63% 29.65 in 10.0 mi South 16.1 mph 32.2 mph N/A   Mostly Cloudy
12:53 PM 66.0 °F 60.1 °F 81% 29.65 in 2.5 mi South 10.4 mph 18.4 mph 0.04 in Rain Rain
1:31 PM 64.4 °F 62.6 °F 94% 29.64 in 3.0 mi South 10.4 mph 20.7 mph 0.10 in Rain Rain
1:46 PM 64.4 °F 62.6 °F 94% 29.64 in 3.0 mi South 12.7 mph 21.9 mph 0.11 in Rain Rain
1:53 PM 64.0 °F 62.1 °F 93% 29.63 in 3.0 mi South 16.1 mph 24.2 mph 0.12 in Rain Light Rain
2:28 PM 64.4 °F 62.6 °F 94% 29.62 in 2.5 mi South 12.7 mph 21.9 mph 0.04 in Rain Rain
2:38 PM 60.8 °F 57.2 °F 88% 29.68 in 1.2 mi WSW 12.7 mph 35.7 mph 0.10 in Rain Heavy Rain
2:45 PM 57.2 °F 55.4 °F 94% 29.68 in 1.8 mi SW 10.4 mph 28.8 mph 0.13 in Rain Rain
2:48 PM 57.2 °F 55.4 °F 94% 29.69 in 2.0 mi Variable 6.9 mph 28.8 mph 0.14 in Rain Rain
2:51 PM 57.2 °F 55.4 °F 94% 29.69 in 2.5 mi WSW 8.1 mph 24.2 mph 0.14 in Rain Light Rain
2:53 PM 57.9 °F 55.9 °F 93% 29.70 in 3.0 mi Variable 4.6 mph 19.6 mph 0.14 in Rain Light Rain
3:01 PM 57.2 °F 55.4 °F 94% 29.69 in 2.5 mi West 8.1 mph - 0.02 in Rain Rain
3:19 PM 55.4 °F 53.6 °F 94% 29.72 in 3.0 mi Variable 5.8 mph - 0.04 in Rain Light Rain
3:24 PM 55.4 °F 53.6 °F 94% 29.72 in 2.5 mi SW 11.5 mph 20.7 mph 0.05 in Rain Rain
3:45 PM 53.6 °F 53.6 °F 100% 29.73 in 2.5 mi West 9.2 mph - 0.09 in Rain Rain
3:50 PM 53.6 °F 51.8 °F 94% 29.74 in 4.0 mi WSW 9.2 mph 19.6 mph 0.10 in Rain Light Rain
3:53 PM 54.0 °F 52.0 °F 93% 29.75 in 6.0 mi Variable 5.8 mph 19.6 mph 0.10 in Rain Light Rain
4:03 PM 53.6 °F 51.8 °F 94% 29.75 in 4.0 mi SW 6.9 mph - 0.01 in Rain Light Rain
4:34 PM 53.6 °F 51.8 °F 94% 29.76 in 10.0 mi WSW 4.6 mph 16.1 mph 0.03 in Rain Light Rain
4:53 PM 54.0 °F 52.0 °F 93% 29.78 in 10.0 mi Variable 6.9 mph - 0.04 in Rain Light Rain
5:18 PM 53.6 °F 51.8 °F 94% 29.78 in 10.0 mi Variable 6.9 mph - 0.00 in   Overcast
5:33 PM 53.6 °F 51.8 °F 94% 29.80 in 10.0 mi SW 4.6 mph - 0.00 in   Mostly Cloudy
5:53 PM 54.0 °F 52.0 °F 93% 29.81 in 10.0 mi Variable 4.6 mph - 0.00 in   Mostly Cloudy
6:20 PM 53.6 °F 51.8 °F 94% 29.81 in 10.0 mi SW 5.8 mph - N/A   Overcast
6:47 PM 53.6 °F 51.8 °F 94% 29.82 in 2.5 mi Variable 3.5 mph - 0.01 in Rain Light Rain
6:49 PM 53.6 °F 51.8 °F 94% 29.81 in 2.5 mi SSW 4.6 mph - 0.01 in Rain Light Rain
6:53 PM 54.0 °F 52.0 °F 93% 29.82 in 2.5 mi Variable 4.6 mph - 0.01 in Rain Light Rain
7:00 PM 53.6 °F 51.8 °F 94% 29.82 in 10.0 mi SW 5.8 mph - 0.00 in   Mostly Cloudy
7:53 PM 52.0 °F 50.0 °F 93% 29.85 in 10.0 mi Variable 6.9 mph - 0.00 in   Mostly Cloudy
8:53 PM 52.0 °F 50.0 °F 93% 29.87 in 10.0 mi Variable 4.6 mph - N/A   Overcast
9:53 PM 52.0 °F 48.9 °F 89% 29.90 in 10.0 mi Variable 4.6 mph - N/A   Mostly Cloudy
10:53 PM 50.0 °F 46.9 °F 89% 29.91 in 10.0 mi Variable 3.5 mph - N/A   Clear
11:53 PM 46.0 °F 44.1 °F 93% 29.92 in 6.0 mi Calm Calm - N/A   Clear